Stations météo

Publicité
Nevers, France (7260): Température de l'air & dewpoint: 06.12.2018 20:00:00 - 12.12.2018 20:00:00 (CET)Nevers, France (7260): Température de l'air 5cm: 06.12.2018 20:00:00 - 12.12.2018 20:00:00 (CET)Nevers, France (7260): Température de l'air -20cm & Température de l'air -100cm: 06.12.2018 20:00:00 - 12.12.2018 20:00:00 (CET)Nevers, France (7260): Vitesse du vent & gusts: 06.12.2018 20:00:00 - 12.12.2018 20:00:00 (CET)Nevers, France (7260): Direction du vent: 06.12.2018 20:00:00 - 12.12.2018 20:00:00 (CET)Nevers, France (7260): reduced air pressure: 06.12.2018 20:00:00 - 12.12.2018 20:00:00 (CET)Nevers, France (7260): visibility: 06.12.2018 20:00:00 - 12.12.2018 20:00:00 (CET)Nevers, France (7260): Ensoleillement: 06.12.2018 20:00:00 - 12.12.2018 20:00:00 (CET)Nevers, France (7260): Quantités de précipitations: 06.12.2018 20:00:00 - 12.12.2018 20:00:00 (CET)
Date & Time tt [°C] td [°C] tt 5cm [°C] tt -20cm [°C] tt -100cm [°C] ff [km/h] ff [knt] fx [km/h] fx [knt] dd ppp [hPa] vv [km] sd [min] rr [mm]
12.12.2018 20:00:00 - - - - - - - - - - - - - -
12.12.2018 19:00:00 -2,2 -3,5 -4,4 8,0 11,7 0 0 4 2 N 1019,8 16 0 0,0
12.12.2018 18:00:00 -1,3 -3,0 -3,1 8,1 11,7 0 0 6 3 N 1020,0 20 0 0,0
12.12.2018 17:00:00 1,2 -2,9 -0,8 8,1 11,7 4 2 11 6 SSE 1019,6 20 21 0,0
12.12.2018 16:00:00 4,5 -2,2 3,7 8,2 11,7 9 5 18 10 ESE 1019,6 20 60 0,0
12.12.2018 15:00:00 4,8 -2,1 5,1 8,2 11,7 12 6 20 11 E 1019,6 20 60 0,0
12.12.2018 14:00:00 4,1 -0,7 4,4 8,2 11,7 7 4 14 8 E 1020,3 20 48 0,0
12.12.2018 13:00:00 3,6 -0,4 2,5 8,3 11,7 6 4 9 5 ESE 1021,4 20 19 0,0
12.12.2018 12:00:00 1,4 0,4 1,9 8,4 11,7 4 2 6 3 NE 1022,4 20 4 0,0
12.12.2018 11:00:00 0,4 -0,2 0,2 8,4 11,7 4 2 7 4 NNE 1023,0 19 4 0,0
12.12.2018 10:00:00 -0,5 -0,9 -3,4 8,5 11,7 4 2 9 5 ENE 1023,0 18 44 0,0
12.12.2018 09:00:00 -2,4 -2,7 -4,1 8,5 11,7 7 4 8 4 ENE 1023,0 10 0 0,0
12.12.2018 08:00:00 -2,6 -2,9 -3,9 8,6 11,8 2 1 6 3 N 1023,3 10 0 0,0
12.12.2018 07:00:00 -2,3 -2,6 -3,2 8,6 11,8 0 0 5 3 N 1023,1 13 0 0,0
12.12.2018 06:00:00 -1,8 -2,1 -2,9 8,6 11,7 5 3 10 5 E 1022,7 12 0 0,0
12.12.2018 05:00:00 -0,9 -1,2 -1,2 8,7 11,8 6 4 11 6 E 1023,4 2,4 0 0,0
12.12.2018 04:00:00 0,3 -0,1 0,1 8,7 11,8 6 4 10 5 E 1023,9 0,6 0 0,0
12.12.2018 03:00:00 0,6 0,2 0,3 8,7 11,8 4 2 12 6 E 1024,4 3,8 0 0,0
12.12.2018 02:00:00 1,3 0,9 1,3 8,7 11,8 6 3 13 7 ESE 1024,1 1,4 0 0,0
12.12.2018 01:00:00 1,4 1,0 1,5 8,8 11,8 5 3 10 6 ESE 1024,7 0,3 0 0,0
12.12.2018 00:00:00 1,6 1,0 1,8 8,8 11,8 8 4 14 8 E 1024,7 0,4 0 0,0
11.12.2018 23:00:00 2,6 2,0 1,8 8,8 11,8 4 2 8 4 E 1024,7 0,8 0 0,0
11.12.2018 22:00:00 3,1 2,4 2,4 8,8 11,8 3 2 11 6 NE 1024,7 0,8 0 0,0
11.12.2018 21:00:00 3,6 2,7 2,9 8,8 11,8 6 3 12 7 NE 1024,6 4,3 0 0,0
11.12.2018 20:00:00 4,3 3,3 3,8 8,8 11,8 4 2 8 5 N 1024,9 6 0 0,0
11.12.2018 19:00:00 4,5 3,5 4,4 8,8 11,8 3 1 7 4 NNW 1025,0 8 0 0,0
11.12.2018 18:00:00 4,5 3,5 4,4 8,8 11,8 4 2 8 4 S 1025,1 5 0 0,0
11.12.2018 17:00:00 4,5 3,5 4,2 8,8 11,8 5 3 11 6 S 1024,9 8 16 0,0
11.12.2018 16:00:00 5,1 4,1 5,9 8,8 11,8 8 5 13 7 S 1025,0 8 54 0,0
11.12.2018 15:00:00 5,8 4,8 6,4 8,8 11,8 8 4 10 6 S 1025,1 9 36 0,0
11.12.2018 14:00:00 6,7 6,3 6,3 8,9 11,8 2 1 8 4 S 1025,7 15 33 0,0
11.12.2018 13:00:00 4,4 4,0 5,0 8,9 11,8 2 1 6 3 NNW 1026,4 6 0 0,0
11.12.2018 12:00:00 3,3 2,9 4,0 9,0 11,8 3 2 6 3 W 1027,2 0,3 0 0,0
11.12.2018 11:00:00 2,1 1,7 3,0 9,0 11,8 3 2 7 4 NW 1027,5 0,1 0 0,0
11.12.2018 10:00:00 1,7 1,3 1,6 9,1 11,8 2 1 7 4 NNW 1027,3 0,2 14 0,0
11.12.2018 09:00:00 1,6 1,2 0,8 9,1 11,8 0 0 11 6 N 1027,4 2,4 1 0,0
11.12.2018 08:00:00 1,9 1,5 0,3 9,2 11,8 4 2 9 5 SSE 1027,4 0,9 0 0,0
11.12.2018 07:00:00 0,3 -0,1 -0,8 9,3 11,8 0 0 5 3 N 1027,8 0,1 0 0,0
11.12.2018 06:00:00 0,2 -0,2 -2,0 9,3 11,8 7 4 10 5 ENE 1028,0 0,1 0 0,0
11.12.2018 05:00:00 -0,9 -1,3 -2,0 9,4 11,8 0 0 3 1 N 1028,3 0,2 0 0,0
11.12.2018 04:00:00 -0,1 -0,5 -1,6 9,5 11,8 0 0 4 2 N 1028,5 0,6 0 0,0
11.12.2018 03:00:00 0,2 -0,4 -1,1 9,6 11,8 2 1 4 2 SSE 1028,5 3,3 0 0,0
11.12.2018 02:00:00 1,8 1,2 0,0 9,6 11,8 3 2 4 2 WNW 1028,9 3,4 0 0,0
11.12.2018 01:00:00 1,9 1,2 -0,4 9,7 11,8 0 0 3 2 N 1029,2 8 0 0,0
11.12.2018 00:00:00 1,2 0,5 -0,7 9,7 11,8 0 0 3 2 N 1029,4 10 0 0,0
10.12.2018 23:00:00 2,5 1,6 -0,6 9,7 11,8 0 0 4 2 N 1029,4 14 0 0,0
10.12.2018 22:00:00 1,9 0,9 -0,8 9,7 11,8 0 0 5 3 N 1029,6 19 0 0,0
10.12.2018 21:00:00 4,0 2,3 0,6 9,8 11,8 5 3 9 5 W 1029,7 20 0 0,0
10.12.2018 20:00:00 4,0 3,0 0,5 9,8 11,8 3 2 6 4 W 1029,8 20 0 0,0
10.12.2018 19:00:00 5,3 3,0 1,7 9,8 11,8 0 0 8 5 N 1029,7 20 0 0,0
10.12.2018 18:00:00 7,4 4,0 5,6 9,8 11,8 5 3 12 7 WNW 1029,5 20 0 0,0
10.12.2018 17:00:00 7,2 3,8 5,5 9,8 11,8 9 5 22 12 WNW 1029,3 20 21 0,0
10.12.2018 16:00:00 8,9 4,9 7,9 9,8 11,8 14 8 22 12 W 1029,0 20 32 0,0
10.12.2018 15:00:00 8,9 4,5 8,2 9,8 11,8 14 7 26 14 W 1029,2 20 24 0,0
10.12.2018 14:00:00 8,8 4,4 9,0 9,8 11,8 18 10 28 15 WNW 1029,5 20 34 0,0
10.12.2018 13:00:00 8,4 5,5 8,2 9,8 11,8 16 9 26 14 W 1030,0 20 6 0,0
10.12.2018 12:00:00 8,1 5,6 8,1 9,8 11,8 18 10 29 16 WNW 1030,3 20 0 0,0
10.12.2018 11:00:00 7,9 5,5 7,6 9,8 11,8 16 8 30 16 WNW 1030,3 20 0 0,0
10.12.2018 10:00:00 7,6 5,7 7,4 9,9 11,8 18 10 28 15 W 1029,9 19 2 0,0
10.12.2018 09:00:00 7,7 6,0 7,1 9,9 11,8 17 9 27 15 W 1029,5 17 0 0,0
10.12.2018 08:00:00 7,7 6,2 7,1 9,9 11,8 11 6 21 11 W 1029,1 13 0 0,0
10.12.2018 07:00:00 7,7 6,3 7,1 9,9 11,8 13 7 22 12 W 1029,0 14 0 0,0
10.12.2018 06:00:00 7,7 6,0 6,7 9,9 11,8 8 4 27 15 W 1028,4 19 0 0,0
10.12.2018 05:00:00 8,0 6,1 7,2 9,9 11,8 15 8 35 19 W 1028,1 20 0 0,0
10.12.2018 04:00:00 8,0 6,1 7,2 9,9 11,8 18 10 32 18 W 1028,0 20 0 0,0
10.12.2018 03:00:00 8,0 6,0 7,3 10,0 11,8 21 11 40 22 W 1028,1 20 0 0,0
10.12.2018 02:00:00 8,0 6,0 7,1 10,0 11,8 21 11 42 23 W 1027,5 20 0 0,0
10.12.2018 01:00:00 8,2 5,8 7,2 10,0 11,8 24 13 44 24 W 1027,0 19 0 0,0
10.12.2018 00:00:00 8,8 6,1 7,2 10,0 11,8 26 14 42 23 W 1026,2 20 0 0,0
09.12.2018 23:00:00 8,8 6,8 7,7 10,0 11,8 21 12 40 21 W 1025,5 14 0 2,2
09.12.2018 22:00:00 8,6 7,1 7,9 10,0 11,8 16 9 41 22 NW 1024,6 4,3 0 1,2
09.12.2018 21:00:00 9,7 6,4 9,0 10,0 11,8 26 14 46 25 W 1023,7 20 0 0,0
09.12.2018 20:00:00 9,7 6,6 9,0 10,0 11,8 24 13 42 23 W 1022,7 20 0 0,0
09.12.2018 19:00:00 9,8 6,7 8,8 10,0 11,9 24 13 45 24 W 1021,6 20 0 0,0
09.12.2018 18:00:00 9,9 6,6 8,1 10,0 11,8 28 15 51 28 W 1020,4 17 0 0,0
09.12.2018 17:00:00 9,8 7,0 8,0 10,0 11,8 23 13 46 25 W 1019,2 18 0 0,6
09.12.2018 16:00:00 10,7 6,3 9,6 10,0 11,8 29 16 55 30 W 1018,2 18 6 0,0
09.12.2018 15:00:00 10,8 5,7 10,2 10,0 11,8 31 17 62 34 W 1017,6 18 0 0,0
09.12.2018 14:00:00 10,8 5,7 10,2 10,1 11,8 34 19 63 34 W 1017,3 17 7 0,0
09.12.2018 13:00:00 10,5 5,3 9,8 10,1 11,8 31 17 58 32 W 1017,4 16 5 0,0
09.12.2018 12:00:00 10,5 5,5 9,8 10,1 11,8 28 15 61 33 W 1017,6 16 30 0,0
09.12.2018 11:00:00 10,2 5,4 9,1 10,1 11,8 29 16 50 27 W 1018,1 15 60 0,0
09.12.2018 10:00:00 9,3 5,3 7,6 10,1 11,8 26 14 49 27 WSW 1017,5 20 48 0,0
09.12.2018 09:00:00 8,6 5,3 7,1 10,1 11,8 25 13 41 22 WSW 1017,3 20 3 0,0
09.12.2018 08:00:00 8,9 5,6 7,7 10,1 11,8 24 13 51 28 W 1016,6 20 0 0,2
09.12.2018 07:00:00 9,7 6,4 8,2 10,1 11,8 29 16 56 30 W 1015,5 16 0 0,0
09.12.2018 06:00:00 10,4 7,3 8,0 10,1 11,8 21 12 47 26 WSW 1015,1 12 0 0,0
09.12.2018 05:00:00 9,8 7,0 7,8 10,1 11,8 26 14 72 39 W 1015,2 19 0 0,4
09.12.2018 04:00:00 11,1 7,8 8,6 10,1 11,8 31 17 56 30 WSW 1014,5 11 0 0,4
09.12.2018 03:00:00 10,0 8,3 8,9 10,1 11,8 19 10 60 32 W 1014,6 4,6 0 0,8
09.12.2018 02:00:00 11,2 7,9 9,7 10,1 11,8 35 19 71 38 WSW 1014,4 20 0 0,2
09.12.2018 01:00:00 11,7 8,0 9,8 10,1 11,8 32 17 61 33 W 1014,7 20 0 0,2
09.12.2018 00:00:00 11,4 10,1 10,5 10,1 11,8 27 15 63 34 WSW 1014,3 2,6 0 0,2
08.12.2018 23:00:00 11,7 9,6 10,2 10,1 11,8 27 14 54 29 SW 1014,1 20 0 0,2
08.12.2018 22:00:00 11,1 9,5 9,7 10,1 11,8 26 14 44 24 SW 1014,9 19 0 0,4
08.12.2018 21:00:00 10,6 9,0 9,3 10,1 11,8 27 14 53 29 SW 1015,9 6 0 0,0
08.12.2018 20:00:00 10,4 8,5 9,2 10,1 11,8 26 14 46 25 SW 1016,6 13 0 0,2
08.12.2018 19:00:00 9,9 8,7 9,0 10,1 11,8 26 14 41 22 SW 1017,6 10 0 0,8
08.12.2018 18:00:00 9,6 8,4 8,9 10,1 11,8 18 10 35 19 SW 1018,4 2,6 0 0,4
08.12.2018 17:00:00 9,6 8,5 9,0 10,1 11,8 20 11 35 19 SSW 1018,8 5 0 0,4
08.12.2018 16:00:00 10,2 8,0 9,3 10,1 11,8 21 11 35 19 SW 1019,6 6 0 0,0
08.12.2018 15:00:00 10,8 7,1 9,7 10,1 11,8 20 11 59 32 WSW 1019,7 20 0 0,0
08.12.2018 14:00:00 10,8 6,7 9,8 10,1 11,8 28 15 44 24 WSW 1020,4 20 2 0,0
08.12.2018 13:00:00 10,0 7,1 9,6 10,2 11,8 24 13 44 24 WSW 1021,1 11 0 0,0
08.12.2018 12:00:00 9,6 7,0 8,5 10,2 11,8 18 10 36 19 WSW 1021,6 20 0 0,0
08.12.2018 11:00:00 8,9 7,0 7,7 10,3 11,8 19 10 41 22 WSW 1022,0 20 5 0,2
08.12.2018 10:00:00 8,7 6,0 7,7 10,3 11,8 24 13 40 21 WSW 1021,7 17 4 0,0
08.12.2018 09:00:00 8,0 5,3 6,3 10,4 11,8 20 11 42 23 SW 1021,5 20 4 0,0
08.12.2018 08:00:00 7,4 4,9 6,0 10,4 11,8 19 10 36 20 WSW 1021,6 20 0 0,0
08.12.2018 07:00:00 7,0 4,5 5,9 10,5 11,8 19 10 38 20 WSW 1021,3 20 0 0,0
08.12.2018 06:00:00 6,8 4,5 5,5 10,5 11,8 18 10 32 18 SW 1021,0 20 0 0,0
08.12.2018 05:00:00 6,6 4,1 5,4 10,6 11,8 16 9 36 19 WSW 1021,0 20 0 0,0
08.12.2018 04:00:00 6,7 4,4 5,2 10,6 11,8 16 9 30 16 SW 1021,3 19 0 0,0
08.12.2018 03:00:00 6,3 4,0 4,6 10,7 11,8 16 8 27 14 SW 1021,5 20 0 0,0
08.12.2018 02:00:00 6,1 3,6 4,7 10,7 11,8 15 8 28 15 SW 1021,4 20 0 0,0
08.12.2018 01:00:00 6,4 3,9 5,0 10,8 11,8 13 7 27 15 SSW 1021,4 20 0 0,0
08.12.2018 00:00:00 6,8 3,9 5,4 10,8 11,8 13 7 31 17 SW 1021,2 20 0 0,0
07.12.2018 23:00:00 7,0 4,0 5,8 10,8 11,8 18 10 32 17 WSW 1020,8 20 0 0,0
07.12.2018 22:00:00 7,1 4,2 5,8 10,9 11,8 14 7 37 20 WSW 1020,3 20 0 0,0
07.12.2018 21:00:00 7,6 4,4 6,3 10,9 11,8 22 12 40 21 W 1019,3 20 0 0,0
07.12.2018 20:00:00 8,7 3,9 6,9 10,9 11,8 26 14 54 29 W 1018,0 20 0 0,0
07.12.2018 19:00:00 9,2 5,0 7,5 10,9 11,8 37 20 56 31 W 1016,6 20 0 0,2
07.12.2018 18:00:00 10,6 7,5 8,7 10,8 11,8 26 14 50 27 W 1015,1 20 0 0,6
07.12.2018 17:00:00 11,0 8,9 9,7 10,9 11,8 24 13 52 28 SSW 1013,1 20 0 3,0
07.12.2018 16:00:00 10,8 9,1 9,9 10,8 11,8 21 11 44 24 SSW 1012,7 8 0 0,6
07.12.2018 15:00:00 12,7 7,4 11,9 10,8 11,8 29 16 54 29 SSW 1013,0 20 0 0,0
07.12.2018 14:00:00 12,7 7,6 11,5 10,8 11,8 29 16 48 26 SSW 1014,4 20 0 0,0
07.12.2018 13:00:00 12,2 8,5 11,2 10,8 11,8 16 9 31 17 S 1016,0 20 10 0,0
07.12.2018 12:00:00 11,3 8,7 9,7 10,9 11,8 18 10 32 18 S 1017,6 20 0 0,2
07.12.2018 11:00:00 11,1 8,1 9,8 10,9 11,8 13 7 31 17 S 1019,6 20 0 0,0
07.12.2018 10:00:00 10,6 8,4 9,3 10,8 11,8 12 7 23 12 S 1020,4 20 0 0,0
07.12.2018 09:00:00 10,3 8,2 8,9 10,9 11,8 14 7 26 14 S 1020,6 20 0 0,0
07.12.2018 08:00:00 10,3 7,9 9,0 10,8 11,8 13 7 30 16 SSW 1021,0 20 0 0,0
07.12.2018 07:00:00 10,3 8,2 9,2 10,9 11,8 14 8 35 19 SSW 1021,5 20 0 0,0
07.12.2018 06:00:00 10,4 9,0 9,6 10,9 11,8 10 6 20 11 SSW 1021,7 20 0 0,0
07.12.2018 05:00:00 10,3 9,2 9,6 10,9 11,8 8 4 15 8 S 1022,3 20 0 0,0
07.12.2018 04:00:00 10,3 9,4 9,6 10,9 11,8 7 4 16 9 S 1022,9 20 0 0,0
07.12.2018 03:00:00 10,4 9,5 9,9 10,8 11,8 11 6 22 12 SW 1023,9 14 0 0,2
07.12.2018 02:00:00 10,7 9,6 10,1 10,8 11,8 9 5 18 10 SW 1024,1 17 0 0,0
07.12.2018 01:00:00 11,1 9,5 10,2 10,8 11,8 12 6 23 13 WSW 1024,6 20 0 0,0
07.12.2018 00:00:00 11,2 9,9 10,4 10,8 11,8 10 6 23 13 SW 1025,1 20 0 0,0
06.12.2018 23:00:00 11,3 10,4 10,8 10,8 11,8 15 8 22 12 SSW 1025,2 12 0 0,0
06.12.2018 22:00:00 11,5 10,2 10,7 10,7 11,8 10 6 18 10 SSW 1025,3 20 0 0,0
06.12.2018 21:00:00 11,6 10,3 10,8 10,7 11,8 10 5 23 13 SW 1025,3 20 0 0,0
06.12.2018 20:00:00 11,8 10,7 10,9 10,7 11,8 8 5 23 12 SW 1025,3 20 0 0,0

tt = Température de l'air
td = dewpoint
tt 5cm = Température de l'air 5cm
tt -20cm = Température de l'air -20cm
tt -100cm = Température de l'air -100cm
ff = Vitesse du vent
fx = gusts
dd = Direction du vent
ppp = reduced air pressure
vv = visibility
sd = Ensoleillement
rr = Quantités de précipitations

stations d'obs. à proximité